Location: Zagreb
(45.8000°N, 16.0000°E)
Time: 12:43:21
(UTC+01:00)

Vanguard 1 Rocket - Pass Details

Date: 10 October 2020
Orbit: 656 x 4221 km, 34.3° (Epoch: 28 October)

Event Time Altitude Azimuth Distance (km) Brightness Sun altitude
Rises 16:07:39 0° 231° (SW) 3,666 12.1 20.3°
Reaches altitude 10° 16:09:58 10° 222° (SW) 2,982 11.9 20.0°
Maximum altitude 16:16:41 37° 157° (SSE) 2,313 9.8 19.0°
Drops below altitude 10° 16:28:37 10° 97° (E) 5,297 10.9 17.2°
Sets 16:34:22 0° 92° (E) 6,922 11.4 16.3°
